Greenville/Spartanburg, SC

8:27 PM EDT on March 25, 2017 (GMT -0400)
Greenville-Spartanburg International

Weather History for KGSP - July, 2013

Change the Weather History Date:

Tuesday, July 23, 2013

  Actual Average Record
Temperature  
Mean Temperature 79 °F 80 °F  
Max Temperature 89 °F 90 °F 102 °F (1952)
Min Temperature 69 °F 70 °F 59 °F (1966)
Degree Days  
Heating Degree Days 0 0  
Month to date heating degree days 0 0  
Since 1 June heating degree days 0 2  
Since 1 July heating degree days 0 0  
Cooling Degree Days 14 15  
Month to date cooling degree days 294 343  
Year to date cooling degree days 803 895  
Since 1 June cooling degree days 641 694  
Growing Degree Days 29 (Base 50)    
Moisture  
Dew Point 70 °F    
Average Humidity 74    
Maximum Humidity 100    
Minimum Humidity 47    
Precipitation  
Precipitation 0.00 in 0.17 in 2.59 in (1979)
Month to date precipitation 13.57 3.49  
Year to date precipitation 46.16 26.72  
Snow  
Snow 0.00 in 0.00 in 0.00 in ()
Month to date snowfall 0.0 0.0  
Since 1 June snowfall 0.0 0.0  
Since 1 July snowfall 0.0 0.0  
Snow Depth 0.00 in    
Sea Level Pressure  
Sea Level Pressure 29.84 in    
Wind  
Wind Speed 7 mph (SW)    
Max Wind Speed 14 mph    
Max Gust Speed 20 mph    
Visibility 10 miles    
Events      
T = Trace of Precipitation, MM = Missing Value Source: NWS Daily Summary

Daily Weather History Graph

Daily Weather History Graph

Search for Another Location

Airport or City:

Trip Planner

Search our weather history database for the weather conditions in past years. The results will help you decide how hot, cold, wet, or windy it might be!

Date:

Astronomy

Jul. 23, 2013 Rise Set
Actual Time 6:32 AM EDT 8:38 PM EDT
Civil Twilight 6:03 AM EDT 9:06 PM EDT
Nautical Twilight 5:29 AM EDT 9:41 PM EDT
Astronomical Twilight 4:51 AM EDT 10:18 PM EDT
Moon 9:12 PM EDT (7/23) 7:34 AM EDT (7/23)
Length of Visible Light 15h 02m
Length of Day
14h 06m
Full, 99% of the Moon is Illuminated
Jul 23
Full
Jul 29
Last Quarter
Aug 6
New
Aug 14
First Quarter
Aug 20
Full

Hourly Weather History & Observations

Time (EDT) Temp. Heat Index Dew Point Humidity Pressure Visibility Wind Dir Wind Speed Gust Speed Precip Events Conditions
12:53 AM 73.0 °F - 71.1 °F 93% 29.86 in 10.0 mi West 6.9 mph - N/A   Clear
1:53 AM 73.0 °F - 70.0 °F 90% 29.84 in 10.0 mi WSW 4.6 mph - N/A   Clear
2:07 AM 71.6 °F - 69.8 °F 94% 29.88 in 10.0 mi SW 5.8 mph - N/A   Scattered Clouds
2:53 AM 72.0 °F - 70.0 °F 93% 29.83 in 10.0 mi SW 8.1 mph - N/A   Clear
3:30 AM 71.6 °F - 69.8 °F 94% 29.86 in 10.0 mi SW 4.6 mph - N/A   Partly Cloudy
3:53 AM 71.1 °F - 70.0 °F 96% 29.83 in 9.0 mi SW 4.6 mph - N/A   Mostly Cloudy
4:28 AM 71.6 °F - 69.8 °F 94% 29.87 in 7.0 mi SW 4.6 mph - N/A   Scattered Clouds
4:53 AM 71.1 °F - 70.0 °F 96% 29.84 in 8.0 mi SW 5.8 mph - N/A   Clear
5:05 AM 71.6 °F - 69.8 °F 94% 29.88 in 8.0 mi WSW 4.6 mph - N/A   Partly Cloudy
5:53 AM 70.0 °F - 69.1 °F 97% 29.85 in 8.0 mi SW 3.5 mph - N/A   Partly Cloudy
6:53 AM 70.0 °F - 69.1 °F 97% 29.86 in 10.0 mi SW 3.5 mph - N/A   Clear
7:53 AM 72.0 °F - 69.1 °F 91% 29.87 in 10.0 mi WSW 6.9 mph - N/A   Clear
8:53 AM 73.9 °F - 68.0 °F 82% 29.86 in 10.0 mi WSW 3.5 mph - N/A   Clear
9:53 AM 79.0 °F - 69.1 °F 72% 29.87 in 10.0 mi WSW 8.1 mph - N/A   Clear
10:53 AM 82.0 °F 85.5 °F 69.1 °F 65% 29.87 in 10.0 mi SW 9.2 mph - N/A   Clear
11:53 AM 84.0 °F 87.8 °F 69.1 °F 61% 29.88 in 10.0 mi WSW 8.1 mph - N/A   Clear
12:53 PM 86.0 °F 89.4 °F 68.0 °F 55% 29.88 in 10.0 mi West 5.8 mph - N/A   Clear
1:53 PM 88.0 °F 90.7 °F 66.9 °F 49% 29.86 in 10.0 mi SW 6.9 mph - N/A   Partly Cloudy
2:53 PM 89.1 °F 92.1 °F 66.9 °F 48% 29.83 in 10.0 mi Calm Calm - N/A   Clear
3:53 PM 87.1 °F 90.6 °F 68.0 °F 53% 29.80 in 10.0 mi SSW 5.8 mph - N/A   Scattered Clouds
4:53 PM 84.9 °F 88.8 °F 69.1 °F 59% 29.79 in 10.0 mi SW 6.9 mph - N/A   Partly Cloudy
5:53 PM 82.9 °F 88.0 °F 72.0 °F 69% 29.78 in 10.0 mi SW 10.4 mph - N/A   Mostly Cloudy
6:53 PM 84.0 °F 89.6 °F 72.0 °F 67% 29.78 in 10.0 mi WSW 12.7 mph 19.6 mph N/A   Mostly Cloudy
7:53 PM 81.0 °F 85.2 °F 72.0 °F 74% 29.78 in 10.0 mi SW 9.2 mph - N/A   Clear
8:53 PM 78.1 °F - 72.0 °F 81% 29.80 in 10.0 mi SW 5.8 mph - N/A   Clear
9:53 PM 79.0 °F - 71.1 °F 77% 29.80 in 10.0 mi SW 9.2 mph - 0.00 in   Clear
10:53 PM 77.0 °F - 70.0 °F 79% 29.81 in 10.0 mi WSW 4.6 mph - N/A   Clear
11:53 PM 75.9 °F - 70.0 °F 82% 29.81 in 10.0 mi SW 8.1 mph - N/A   Clear